Weather History for Wager Bay, NT

Change the Weather History Date:

Tuesday, January 15, 2013

  Actual Average Record
Temperature  
Mean Temperature -40 °F -  
Max Temperature -35 °F - - ()
Min Temperature -46 °F - - ()
Degree Days  
Heating Degree Days 106    
Moisture  
Dew Point -50 °F    
Average Humidity 58    
Maximum Humidity 64    
Minimum Humidity 38    
Precipitation  
Precipitation 0.05 in - - ()
Sea Level Pressure  
Sea Level Pressure 29.63 in    
Wind  
Wind Speed 8 mph ()    
Max Wind Speed 14 mph    
Max Gust Speed -    
T = Trace of Precipitation, MM = Missing Value Source: Averaged Metar Reports

Daily Weather History Graph

Daily Weather History Graph

Search for Another Location

Airport:

Trip Planner

Search our weather history database for the weather conditions in past years. The results will help you decide how hot, cold, wet, or windy it might be!

Date:

Astronomy

Jan. 15, 2013 Rise Set
Actual Time 8:47 AM MST 1:27 PM MST
Civil Twilight 7:30 AM MST 2:45 PM MST
Nautical Twilight 6:20 AM MST 3:55 PM MST
Astronomical Twilight 5:18 AM MST 4:57 PM MST
Moon 8:30 AM MST (1/15) 8:54 PM MST (1/15)
Length of Visible Light 7h 14m
Length of Day
4h 40m
Waxing Crescent, 20% of the Moon is Illuminated
Jan 15
Waxing Crescent
Jan 18
First Quarter
Jan 26
Full
Feb 3
Last Quarter
Feb 10
New

Hourly Weather History & Observations

Time (MST) Temp. Windchill Dew Point Humidity Pressure Visibility Wind Dir Wind Speed Gust Speed Precip Events Conditions
12:00 AM -35.9 °F -62.0 °F -44.0 °F 64% 29.74 in - WNW 11.5 mph - N/A   Unknown
1:00 AM -35.7 °F -63.0 °F -43.8 °F 64% 29.74 in - WNW 12.7 mph - N/A   Unknown
2:00 AM -35.9 °F -62.0 °F -44.0 °F 64% 29.73 in - NW 11.5 mph - N/A   Unknown
4:00 AM -39.8 °F -65.7 °F -48.3 °F 62% 29.71 in - NW 10.4 mph - N/A   Unknown
5:00 AM -41 °F - -49 °F 43% 29.69 in - WNW 10.4 mph - -  
5:00 AM -40.5 °F -66.6 °F -49.2 °F 62% 29.69 in - WNW 10.4 mph - N/A   Unknown
6:00 AM -41.3 °F -68.8 °F -50.1 °F 61% 29.68 in - WNW 11.5 mph - N/A   Unknown
7:00 AM -40.7 °F -66.8 °F -49.4 °F 62% 29.68 in - WNW 10.4 mph - N/A   Unknown
8:00 AM -40.5 °F -69.1 °F -49.2 °F 62% 29.67 in - WNW 12.7 mph - N/A   Unknown
9:00 AM -40.9 °F -68.4 °F -49.9 °F 60% 29.65 in - NW 11.5 mph - N/A   Unknown
10:00 AM -40.5 °F -67.9 °F -49.4 °F 61% 29.64 in - WNW 11.5 mph - N/A   Unknown
11:00 AM -41 °F - -50 °F 38% 29.62 in - NW 13.8 mph - -  
11:00 AM -41.1 °F -70.9 °F -50.3 °F 60% 29.62 in - NW 13.8 mph - N/A   Unknown
12:00 PM -40.5 °F -63.6 °F -49.7 °F 60% 29.62 in - WNW 8.1 mph - N/A   Unknown
1:00 PM -41.6 °F -66.5 °F -50.6 °F 60% 29.61 in - WNW 9.2 mph - N/A   Unknown
2:00 PM -43.1 °F -60.2 °F -52.1 °F 60% 29.61 in - North 4.6 mph - N/A   Unknown
3:00 PM -42.9 °F -59.9 °F -51.9 °F 60% 29.61 in - NW 4.6 mph - N/A   Unknown
4:00 PM -44.1 °F -66.1 °F -53.0 °F 60% 29.60 in - NW 6.9 mph - N/A   Unknown
5:00 PM -44 °F - -53 °F 40% 29.60 in - NW 4.6 mph - -  
5:00 PM -43.8 °F -61.0 °F -52.6 °F 61% 29.60 in - NW 4.6 mph - N/A   Unknown
6:00 PM -46.5 °F -64.1 °F -55.7 °F 59% 29.60 in - NNW 4.6 mph - N/A   Unknown
7:00 PM -43.8 °F - -52.8 °F 60% 29.58 in - WNW 2.3 mph - N/A   Unknown
8:00 PM -44.9 °F - -54.0 °F 59% 29.57 in - North 1.2 mph - N/A   Unknown
9:00 PM -42.5 °F -59.5 °F -51.2 °F 61% 29.57 in - North 4.6 mph - N/A   Unknown
10:00 PM -42.7 °F - -51.5 °F 61% 29.56 in - Calm Calm - N/A   Unknown
11:00 PM -43 °F - -52 °F 39% 29.55 in - NNE 2.3 mph - -  
11:00 PM -43.1 °F - -51.9 °F 61% 29.55 in - NNE 2.3 mph - N/A   Unknown